Погода в Оронгое

Россия / Республика Бурятия     51°31′53″N   107°03′08″E
темп.,
°C
ветер,
м/с
пор.,
м/с
влажн.,
%
обл.,
%
осадки,
мм/ч
давл.,
гПа
погр.,
м
17 апреля, сб
сб1723:00+1ю114620 0.0 101613
02:00−1зюз115317 0.0 101511
05:00−2юз11597 0.0 101413
08:00+3ююз124571 0.0 1013253
11:00+10ююз34325 0.0 1009774
14:00+15юз33245 0.0 10051396
17:00+16юз23213 0.0 10031431
20:00+9с223311 0.0 100211
18 апреля, вс
вс1823:00+6сз22455 0.0 100413
02:00+2сз91869100 0.0 1010932
05:000сз81364100 0.0 10161128
08:00−1сз61057100 0.0 10211270
11:00+2ссз793983 0.0 10231688
14:00+3ссз67276 0.0 10221778
17:00+3с33240 0.0 10211693
20:000св223285 0.0 102233
19 апреля, пн
пн1923:00−2св113499 0.0 102214
02:00−4ссв113849 0.0 102210
05:00−5всв11405 0.0 102110
08:00−1в1128100 0.0 1020286
11:00+7ююз35216 0.0 1015963
14:00+13юз58260 0.0 10091499
17:00+14юз46250 0.0 10061340
20:00+9юв223972 0.0 100413
20 апреля, вт
вт2023:00+5з1149100 0.0 100410
02:00+4зсз335384 0.0 100536
05:00+1сз376996 0.0 1011330
08:00+2ссз4557100 0.0 1013694
11:00+5с333857 0.0 10131019
14:00+9ссв22313 0.0 10101366
17:00+10св43334 0.0 10081338
20:00+4с35505 0.0 1009133
21 апреля, ср
ср2123:000ссз225675 0.0 101144
02:00−2ссз23585 0.0 101265
05:00−4ссз227417 0.0 101447
08:000ссз355717 0.0 1014730
11:00+4ссз454292 0.0 10141333
14:00+5ссз5540100 0.0 10131497
17:00+2ссз6745100 0.0 10171338
20:00−1ссз3663100 0.9 1021806